User: anonymous   Login
Location: Unspecified
(0.0000°N, 0.0000°E)
Time: 01:37:29
(UTC+00:00)
Language:

Kosmos-1226 - Orbit

View from above orbital plane
View from above orbital plane
View from above satellite
View from above satellite

Ground track
Ground track

The orbit data is extracted from the following two-line orbital elements,

1 12091U 80099A   18174.51422994 +.00000040 +00000-0 +26823-4 0  9995
2 12091 082.9403 002.7016 0032185 269.7956 118.8529 13.74489549882208
Epoch (UTC): 23 June 2018 12:20:29
Eccentricity: 0.0032185
inclination: 82.9403°
perigee height: 960 km
apogee height: 1007 km
right ascension of ascending node: 2.7016°
argument of perigee: 269.7956°
revolutions per day: 13.74489549
mean anomaly at epoch: 118.8529°
orbit number at epoch: 88220

The dashed part of the orbit path shows where the satellite is in the earth's shadow,  

DLR